Погода в Шарковщине

Погода в Шарковщине : погода сейчас, прогноз погоды и архив. Всё, что Вы хотите узнать о погоде в Шарковщине!

Хотите узнать прогноз погоды в Шарковщине? Тогда Вам сюда: Погода в Шарковщине

Поиск расширенной информации на нашем сайте:

Другие новости

Новости СМИ2

Главная страница сайта

Новости сайта

03.07.2017

Напоминаем, что на нашем специализированном сайте Метеоцентр.Азия вы можете получить высокодетализированные автоматические прогнозы погоды по пунктам России, СНГ и мира в авиационном формате (включающие направление и скорость ветра, видимость, явления погоды, количество и форму облачности, нижнюю и верхнюю границу облачности).


Погода в Шарковщине - сегодня

Время (UTC), дата Ветер
(°,м/с) 
Видим.   Явления Облачность Т
(°С)
Тd
(°С)
f(%) Тe
(°С)
Pmin
(гПа)
dP
(гПа)
Po
(мм)
O2
(г/м3)
Тmin Tmax R s Состояние
почвы
21 18.09.18 180 (Ю) 20000 м    ясно 
+12.5 +11 91 +16  1018.7  -0.2  752  288           
00 19.09.18 180 (Ю) 18000 м    ясно 
+11.6 +10 90 +14  1018.4  -0.4  752  289           
09 19.09.18 220 (ЮЗ) 20000 м    5/0 верхняя 
[Ci fib]
+21.1 +14.5 66 +29  1016.5  -0.5  751  278           
12 19.09.18 230 (ЮЗ) 23000 м    8/3 600 м верхняя 
[Cu hum|Ci fib]
+25 +14.4 52 +33  1015.5  -0.9  750  274           
15 19.09.18 230 (ЮЗ) 20000 м    10/0 верхняя 
[Cs]
+24.6 +15 55 +33  1015.1  -0.4  750  274           
18 19.09.18 220 (ЮЗ) 20000 м    5/0 верхняя 
[Ci fib]
+18.7 +14.8 78 +28  1015.6  0.2  750  280    +26.7       
21 19.09.18 250 (З) 20000 м    3/0 верхняя 
[Ci fib]
+16.4 +13.5 83 +23  1016.1  0.4  750  283           
00 20.09.18 240 (ЮЗ) 12000 м    ясно 
+13.3 +12.2 93 +19  1017  0.7  751  286           
09 20.09.18 260 (З) 20000 м    ясно 
+21.3 +13.7 62 +28  1018.4  0.1  752  278           
12 20.09.18 240 (ЮЗ) 20000 м    ясно 
+24.7 +11.9 45 +28  1017.8  -0.4  752  276           
15 20.09.18 230 (ЮЗ) 18000 м    ясно 
+24.8 +13.5 49 +31  1017  -0.8  751  275           
18 20.09.18 180 (Ю) 16000 м    ясно 
+17.3 +13.9 80 +26  1017.4  751  282    +25.6       
21 20.09.18 170 (Ю) 15000 м    ясно 
+15.6 +13.1 85 +23  1017.4  751  284           
00 21.09.18 170 (Ю) 15000 м    ясно 
+15.4 +13 86 +22  1017.3  -0.2  751  284           
09 21.09.18 200 (Ю) 20000 м    5/1 600 м средняя, верхняя 
[Cu med, cong|Ac trans|Ci fib]
+24.2 +15.6 59 +34  1016.7  751  275           
12 21.09.18 200 (Ю) 20000 м    4/3 600 м верхняя 
[Cu med, cong|Ci fib]
+27.2 +14.2 45 +35  1015.4  -1.2  750  272           
15 21.09.18 160 (Ю) 20000 м    3/0 средняя, верхняя 
[Ac trans|Ci fib]
+25.5 +14 49 +33  1013.5  -1.9  749  273           
18 21.09.18 160 (Ю) 20000 м    ясно 
+19.6 +13.9 70 +28  1013.1  -0.7  748  279    +27.6       
21 21.09.18 150 (ЮВ) 18000 м    3/0 средняя 
[Ac trans]
+18 +10.7 62 +21  1010.7  -2.4  747  280           
00 22.09.18 160 (Ю) 20000 м    ясно 
+18 +12 68 +23  1008.8  -1.9  745  279           
18 22.09.18 210 (ЮЗ) 17000 м  {дождь}  10/3 600 м средняя 
[Sc|Ac As]
+11.3 +9.5 89 +12  1011.6  -0.2  747  287    +19.1     
21 22.09.18 200 (Ю) 20000 м    5/1 600 м средняя 
[Sc|Ac trans]
+9.2 +8 92 +9  1011.4  -0.3  747  290           
00 23.09.18 230 (ЮЗ) 17000 м    3/0 средняя 
[Ac trans]
+8 +7 93 +7  1011.3  -0.2  747  291           
06 23.09.18 200 (Ю) 20000 м    4/0 средняя, верхняя 
[Ac trans|Ci fib]
+8.4 +6.8 90 +8  1009.2  -0.9  745  290  +5.9         
12 23.09.18 240 (ЮЗ) 6-12{12}  25000 м    9/9 800 м 
[Cu med, cong]
+14.2 +4.5 52 +13  1008.5  -0.5  745  285           
Время (UTC), дата Ветер
(°,м/с) 
Видим.   Явления Облачность Т
(°С)
Тd
(°С)
f(%) Тe
(°С)
Pmin
(гПа)
dP
(гПа)
Po
(мм)
O2
(г/м3)
Тmin Tmax R s Состояние
почвы

Для получения пояснительной информации подведите курсор к названию столбца.

ПОГОДА в Шарковщине - архив

Всё, что Вы хотите узнать о погоде в Шарковщине - удобно и подробно!

Выберите нужную дату (начиная с 1 января 2015* года) и нажмите кнопку "Найти".
Будут отображены архивные сводки погоды по пункту Шарковщина, начиная с указанной даты.


Отображать данные в формате CSV (для использования в таблицах Excel)


Внимание! Наш архив погоды предназначен исключительно для личного некоммерческого использования в познавательных целях. Если Вам необходимы официальные справки о состоянии погоды (для производственных, юридических, коммерческих и т.п. целей), обращайтесь в органы Росгидромета.

*Примечание: данная дата относится к архиву по метеостанциям СССР (Россия, СНГ, Балтия).
Архив по метеостанциям Зарубежной Европы и Азии (кроме Китая) хранится 10 дней, по другим регионам земного шара (Китай, Африка, Америка, Австралия, Океания) - 1 день.

Шарковщина - район местоположения метеостанции


Название, широта, долгота, высота метеостанции:
Шарковщина 55.4°ш. 27.5°д. 131 м над ур. моря [Беларусь]

Дополнительная информация

В oтличие oт бoльшинства пoгoдных сайтoв мы публикуем пoдрoбную метеoинфoрмацию в детальнoм прoфессиoнальнoм фoрмате.

Характеристики температуры и влажнoсти вoздуха измеряются на высoте 2 м в тени вдали oт зданий и деревьев.
Скoрoсть ветра измеряется на высoте 10 м (на урoвне рoста челoвека скoрoсть ветра ниже в 1.5-2 раза). Если метеoстанция нахoдится в гoрoде или в лесу, тo скoрoсть ветра занижена на 2-4 м/с пo сравнению с oткрытым местoм. Скoрoсть ветра над акватoриями крупных рек и oзёр, а также на вершинах хoлмoв на 2-5 м/с выше, чем в oбычных услoвиях.
Атмoсфернoе давление в разных тoчках местнoсти мoжет значительнo oтличаться oт давления на метеoстанции, в зависимoсти oт услoвий рельефа (при пoдъёме на 10 м давление пoнижается примернo на 1 мм рт.ст.).